DW1850 Weather Reports


time (UTC)temp
C
wind
direction
speed
KPH
gust
KPH
rain 1hr
cm
rain 24hr
cm
rain mn
cm
humidity
%
barometer
mb
20260506095730 23 172 0.0 14.5 0.00 0.00 0.00 91 1005.4
20260506092730 23 172 0.0 14.5 0.00 0.00 0.00 91 1004.9
20260506085729 23 173 1.6 16.1 0.00 0.00 0.00 90 1004.4
20260506082728 24 172 6.4 19.3 0.00 0.00 0.00 90 1004.5
20260506072756 24 170 9.7 22.5 0.00 0.00 0.00 90 1005.1
20260506035751 25 159 6.4 19.3 0.00 0.00 0.00 88 1004.6
20260506032750 25 164 3.2 14.5 0.00 0.00 0.00 86 1004.2
20260506022749 26 165 9.7 14.5 0.00 0.00 0.00 83 1003.3
20260506015748 26 165 0.0 14.5 0.00 0.00 0.00 81 1002.7
20260506012747 26 169 3.2 19.3 0.00 0.00 0.00 79 1002.7
20260506005747 27 170 0.0 14.5 0.00 0.00 0.00 76 1002.7
20260506002746 27 170 9.7 16.1 0.00 0.00 0.00 74 1002.7
20260505235745 28 169 16.1 20.9 0.00 0.00 0.00 73 1002.7
20260505232744 28 175 3.2 20.9 0.00 0.00 0.00 72 1002.4
20260505225743 28 177 11.3 24.1 0.00 0.00 0.00 71 1002.4
20260505222743 29 162 19.3 24.1 0.00 0.00 0.00 69 1002.2
20260505215742 29 163 1.6 24.1 0.00 0.00 0.00 68 1002.4
20260505212741 29 174 17.7 25.7 0.00 0.00 0.00 69 1002.8
20260505205740 28 146 20.9 24.1 0.00 0.00 0.00 71 1002.9
20260505202740 28 165 11.3 24.1 0.00 0.00 0.00 71 1003.5
20260505192738 27 200 6.4 24.1 0.00 0.00 0.00 72 1004.2
20260505185737 27 203 4.8 16.1 0.00 0.00 0.00 75 1004.4
20260505182736 26 184 3.2 24.1 0.00 0.00 0.00 78 1004.8
20260505175736 25 187 9.7 22.5 0.00 0.00 0.00 82 1004.9
20260505172735 24 198 4.8 22.5 0.00 0.00 0.00 84 1005.2
20260505152732 22 200 3.2 16.1 0.00 0.00 0.00 91 1005.3
20260505112726 21 186 4.8 19.3 0.00 0.00 0.00 91 1003.7